SP2WPY-13 Weather Reports


Display with metric or nautical units.
time (UTC)temp
F
wind
direction
speed
MPH
gust
MPH
rain 1hr
in
rain 24hr
in
rain mn
in
humidity
%
barometer
mb
20260508043630 45 17 7.0 0.0 0.00 0.00 0.00 100 1022.6
20260508043110 46 42 3.0 0.0 0.00 0.00 0.00 100 1022.6
20260508042636 45 320 5.0 0.0 0.00 0.00 0.00 100 1022.6
20260508042116 45 25 4.0 0.0 0.00 0.00 0.00 100 1022.5
20260508041643 45 21 6.0 0.0 0.00 0.00 0.00 100 1022.5
20260508041124 45 36 4.0 0.0 0.00 0.00 0.00 100 1022.5
20260508040603 45 20 6.0 0.0 0.00 0.00 0.00 100 1022.4
20260508040129 45 29 4.0 0.0 0.00 0.00 0.00 100 1022.5
20260508035610 44 17 3.0 0.0 0.00 0.00 0.00 100 1022.5
20260508035137 44 348 3.0 0.0 0.00 0.00 0.00 100 1022.5
20260508034616 44 9 4.0 0.0 0.00 0.00 0.00 100 1022.5
20260508034143 44 13 3.0 0.0 0.00 0.00 0.00 100 1022.4
20260508033623 43 358 4.0 0.0 0.00 0.00 0.00 100 1022.4
20260508033103 43 15 4.0 0.0 0.00 0.00 0.00 100 1022.3
20260508032629 43 358 3.0 0.0 0.00 0.00 0.00 100 1022.3
20260508032110 43 5 3.0 0.0 0.00 0.00 0.00 100 1022.2
20260508031636 43 9 4.0 0.0 0.00 0.00 0.00 100 1022.2
20260508031116 43 0 4.0 0.0 0.00 0.00 0.00 100 1022.1
20260508030643 43 354 4.0 0.0 0.00 0.00 0.00 100 1022.1
20260508030123 43 344 3.0 0.0 0.00 0.00 0.00 100 1022.1
20260508025603 43 19 6.0 0.0 0.00 0.00 0.00 100 1022.0
20260508025129 43 21 5.0 0.0 0.00 0.00 0.00 100 1022.0
20260508024609 43 9 6.0 0.0 0.00 0.00 0.00 100 1022.0
20260508024136 43 19 6.0 0.0 0.00 0.00 0.00 100 1022.0
20260508023616 43 11 7.0 0.0 0.00 0.00 0.00 100 1022.0
20260508023141 43 10 5.0 0.0 0.00 0.00 0.00 100 1022.0
20260508022622 43 23 5.0 0.0 0.00 0.00 0.00 100 1022.0
20260508022102 43 18 5.0 0.0 0.00 0.00 0.00 100 1022.0
20260508021628 43 29 4.0 0.0 0.00 0.00 0.00 100 1022.0
20260508021108 43 13 5.0 0.0 0.00 0.00 0.00 100 1021.9
20260508020635 43 26 5.0 0.0 0.00 0.00 0.00 100 1022.0
20260508020115 43 353 3.0 0.0 0.00 0.00 0.00 100 1022.0
20260508015641 43 35 4.0 0.0 0.00 0.00 0.00 100 1021.9
20260508015122 43 7 5.0 0.0 0.00 0.00 0.00 100 1021.9
20260508014602 43 7 2.0 0.0 0.00 0.00 0.00 100 1021.9
20260508014128 43 0 4.0 0.0 0.00 0.00 0.00 100 1021.9
20260508013609 43 354 4.0 0.0 0.00 0.00 0.00 100 1021.9
20260508013134 43 13 4.0 0.0 0.00 0.00 0.00 100 1021.9
20260508012614 43 7 2.0 0.0 0.00 0.00 0.00 100 1021.9
20260508012141 43 293 3.0 0.0 0.00 0.00 0.00 100 1022.0
20260508011620 43 350 3.0 0.0 0.00 0.00 0.00 100 1022.0
20260508011101 43 18 4.0 0.0 0.00 0.00 0.00 100 1021.9
20260508010627 43 20 6.0 0.0 0.00 0.00 0.00 100 1021.9
20260508010107 43 21 3.0 0.0 0.00 0.00 0.00 100 1021.9
20260508005634 43 14 3.0 0.0 0.00 0.00 0.00 100 1021.9
20260508005113 43 352 4.0 0.0 0.00 0.00 0.00 100 1021.8
20260508004641 43 16 6.0 0.0 0.00 0.00 0.00 100 1021.8
20260508004121 43 343 3.0 0.0 0.00 0.00 0.00 100 1021.8
20260508003601 43 29 3.0 0.0 0.00 0.00 0.00 100 1021.8
20260508003128 43 22 4.0 0.0 0.00 0.00 0.00 100 1021.8
20260508002606 43 347 4.0 0.0 0.00 0.00 0.00 100 1021.8
20260508002134 43 12 5.0 0.0 0.00 0.00 0.00 100 1021.7
20260508001614 43 11 4.0 0.0 0.00 0.00 0.00 100 1021.7
20260508001140 43 21 5.0 0.0 0.00 0.00 0.00 100 1021.7
20260508000620 43 20 3.0 0.0 0.00 0.00 0.00 100 1021.7
20260508000101 43 337 2.0 0.0 0.00 0.00 0.00 100 1021.7
20260507235626 43 306 3.0 0.0 0.00 0.00 0.00 100 1021.7
20260507235107 43 4 6.0 0.0 0.00 0.00 0.00 100 1021.6
20260507234633 43 4 3.0 0.0 0.00 0.00 0.00 100 1021.5
20260507234113 43 296 3.0 0.0 0.00 0.00 0.00 100 1021.6
20260507233639 43 287 5.0 0.0 0.00 0.00 0.00 100 1021.6
20260507233119 43 23 3.0 0.0 0.00 0.00 0.00 100 1021.6
20260507232646 43 3 4.0 0.0 0.00 0.00 0.00 100 1021.5
20260507232125 43 4 4.0 0.0 0.00 0.00 0.00 100 1021.5
20260507231606 43 5 4.0 0.0 0.00 0.00 0.00 100 1021.5
20260507231132 43 23 6.0 0.0 0.00 0.00 0.00 100 1021.3
20260507230612 43 24 5.0 0.0 0.00 0.00 0.00 100 1021.2
20260507230139 43 312 4.0 0.0 0.00 0.00 0.00 100 1021.2
20260507225619 43 17 7.0 0.0 0.00 0.00 0.00 100 1021.2
20260507225145 43 355 4.0 0.0 0.00 0.00 0.00 100 1021.1
20260507224625 43 0 6.0 0.0 0.00 0.00 0.00 100 1021.3
20260507224106 43 19 3.0 0.0 0.00 0.00 0.00 100 1021.3
20260507223631 43 324 4.0 0.0 0.00 0.00 0.00 100 1021.3
20260507223112 43 9 5.0 0.0 0.00 0.00 0.00 100 1021.3
20260507222638 43 14 4.0 0.0 0.00 0.00 0.00 100 1021.3
20260507222118 43 339 4.0 0.0 0.00 0.00 0.00 100 1021.3
20260507221644 43 311 3.0 0.0 0.00 0.00 0.00 100 1021.5
20260507221125 43 282 3.0 0.0 0.00 0.00 0.00 100 1021.6
20260507220605 43 292 3.0 0.0 0.00 0.00 0.00 100 1021.5
20260507220131 43 298 4.0 0.0 0.00 0.00 0.00 100 1021.4
20260507215611 43 335 3.0 0.0 0.00 0.00 0.00 100 1021.4
20260507215138 43 292 6.0 0.0 0.00 0.00 0.00 100 1021.4
20260507214618 43 285 6.0 0.0 0.00 0.00 0.00 100 1021.4
20260507214144 43 8 4.0 0.0 0.00 0.00 0.00 100 1021.4
20260507213625 43 10 5.0 0.0 0.00 0.00 0.00 100 1021.4
20260507213104 43 10 3.0 0.0 0.00 0.00 0.00 100 1021.4
20260507212631 43 334 4.0 0.0 0.00 0.00 0.00 100 1021.4
20260507212111 43 340 2.0 0.0 0.00 0.00 0.00 100 1021.4
20260507211637 43 341 2.0 0.0 0.00 0.00 0.00 100 1021.4
20260507211118 43 286 4.0 0.0 0.00 0.00 0.00 100 1021.3
20260507210643 43 293 5.0 0.0 0.00 0.00 0.00 100 1021.2
20260507210123 43 309 4.0 0.0 0.00 0.00 0.00 100 1021.2
20260507205604 43 286 4.0 0.0 0.00 0.00 0.00 100 1021.1
20260507205130 43 309 4.0 0.0 0.00 0.00 0.00 100 1021.0
20260507204610 42 328 2.0 0.0 0.00 0.00 0.00 100 1020.9
20260507204136 42 354 5.0 0.0 0.00 0.00 0.00 100 1020.9
20260507203617 42 8 6.0 0.0 0.00 0.00 0.00 100 1020.8
20260507203142 42 37 3.0 0.0 0.00 0.00 0.00 100 1020.8
20260507202623 42 11 4.0 0.0 0.00 0.00 0.00 100 1020.7
20260507202103 42 291 4.0 0.0 0.00 0.00 0.00 100 1020.6
20260507201630 42 321 5.0 0.0 0.00 0.00 0.00 100 1020.7
20260507201109 42 278 6.0 0.0 0.00 0.00 0.00 100 1020.7
20260507200635 42 323 6.0 0.0 0.00 0.00 0.00 100 1020.6
20260507200116 42 347 5.0 0.0 0.00 0.00 0.00 100 1020.6
20260507195641 42 284 6.0 0.0 0.00 0.00 0.00 100 1020.6
20260507195122 42 284 5.0 0.0 0.00 0.00 0.00 100 1020.6
20260507194602 42 301 7.0 0.0 0.00 0.00 0.00 100 1020.5
20260507194128 42 329 6.0 0.0 0.00 0.00 0.00 100 1020.4
20260507193608 42 2 3.0 0.0 0.00 0.00 0.00 100 1020.4
20260507193134 42 304 6.0 0.0 0.00 0.00 0.00 100 1020.3
20260507192615 42 310 5.0 0.0 0.00 0.00 0.00 100 1020.2
20260507192141 42 298 6.0 0.0 0.00 0.00 0.00 100 1019.9
20260507191621 43 308 5.0 0.0 0.00 0.00 0.00 100 1019.9
20260507191101 43 287 6.0 0.0 0.00 0.00 0.00 100 1019.9
20260507190628 43 283 6.0 0.0 0.00 0.00 0.00 100 1019.9
20260507190107 43 320 6.0 0.0 0.00 0.00 0.00 100 1019.9
20260507185634 43 281 7.0 0.0 0.00 0.00 0.00 100 1019.9
20260507185115 43 286 7.0 0.0 0.00 0.00 0.00 100 1019.9
20260507184640 43 290 7.0 0.0 0.00 0.00 0.00 100 1019.8
20260507184121 44 296 7.0 0.0 0.00 0.00 0.00 100 1019.8
20260507183601 44 297 4.0 0.0 0.00 0.00 0.00 100 1019.9
20260507183127 44 315 5.0 0.0 0.00 0.00 0.00 100 1019.8
20260507182608 44 337 6.0 0.0 0.00 0.00 0.00 99 1019.8
20260507182133 44 318 4.0 0.0 0.00 0.00 0.00 97 1019.7
20260507181614 44 4 4.0 0.0 0.00 0.00 0.00 96 1019.8
20260507181140 45 0 3.0 0.0 0.00 0.00 0.00 94 1019.7
20260507180621 45 11 5.0 0.0 0.00 0.00 0.00 93 1019.7
20260507175627 46 17 5.0 0.0 0.00 0.00 0.00 89 1019.6
20260507175107 47 21 6.0 0.0 0.00 0.00 0.00 85 1019.5
20260507174633 47 24 4.0 0.0 0.00 0.00 0.00 84 1019.5
20260507174113 48 4 4.0 0.0 0.00 0.00 0.00 83 1019.5
20260507173640 48 7 4.0 0.0 0.00 0.00 0.00 82 1019.4
20260507173120 48 7 4.0 0.0 0.00 0.00 0.00 81 1019.4
20260507172645 48 332 5.0 0.0 0.00 0.00 0.00 83 1019.4
20260507172126 47 24 4.0 0.0 0.00 0.00 0.00 85 1019.4
20260507171606 48 3 5.0 0.0 0.00 0.00 0.00 83 1019.3
20260507171132 48 6 4.0 0.0 0.00 0.00 0.00 85 1019.3
20260507170613 47 14 4.0 0.0 0.00 0.00 0.00 86 1019.3
20260507170139 47 20 5.0 0.0 0.00 0.00 0.00 86 1019.3
20260507165619 47 25 7.0 0.0 0.00 0.00 0.00 87 1019.3
20260507165145 47 10 6.0 0.0 0.00 0.00 0.00 86 1019.4
20260507164626 47 16 8.0 0.0 0.00 0.00 0.00 86 1019.4
20260507164105 47 332 2.0 0.0 0.00 0.00 0.00 87 1019.4
20260507163631 47 8 3.0 0.0 0.00 0.00 0.00 86 1019.3
20260507163112 47 41 5.0 0.0 0.00 0.00 0.00 86 1019.3
20260507162639 47 17 7.0 0.0 0.00 0.00 0.00 85 1019.2
20260507162118 47 13 5.0 0.0 0.00 0.00 0.00 85 1019.2
20260507161645 47 348 6.0 0.0 0.00 0.00 0.00 84 1019.1
20260507161126 48 27 5.0 0.0 0.00 0.00 0.00 83 1019.1
20260507160605 47 22 4.0 0.0 0.00 0.00 0.00 86 1019.1
20260507160132 47 4 5.0 0.0 0.00 0.00 0.00 86 1019.2
20260507155612 47 329 4.0 0.0 0.00 0.00 0.00 88 1019.3
20260507155138 46 336 6.0 0.0 0.00 0.00 0.00 88 1019.2
20260507154619 46 20 6.0 0.0 0.00 0.00 0.00 88 1019.2
20260507154144 46 10 6.0 0.0 0.00 0.00 0.00 90 1019.1
20260507153625 47 19 6.0 0.0 0.00 0.00 0.00 91 1019.1
20260507153105 46 39 4.0 0.0 0.00 0.00 0.00 94 1019.1
20260507152634 46 6 5.0 0.0 0.00 0.00 0.00 94 1019.1
20260507152111 46 19 8.0 0.0 0.00 0.00 0.00 94 1019.1
20260507151638 46 2 5.0 0.0 0.00 0.00 0.00 94 1019.1
20260507151118 46 8 7.0 0.0 0.00 0.00 0.00 93 1019.1
20260507150643 46 18 4.0 0.0 0.00 0.00 0.00 94 1019.1
20260507150125 46 26 6.0 0.0 0.00 0.00 0.00 94 1019.2
20260507145605 46 28 7.0 0.0 0.00 0.00 0.00 93 1019.0
20260507145131 46 44 6.0 0.0 0.00 0.00 0.00 92 1019.0
20260507144611 46 35 5.0 0.0 0.00 0.00 0.00 93 1018.8
20260507144136 47 16 9.0 0.0 0.00 0.00 0.00 91 1018.8
20260507143618 47 23 7.0 0.0 0.00 0.00 0.00 91 1018.8
20260507143143 47 22 4.0 0.0 0.00 0.00 0.00 93 1018.6
20260507142624 47 31 5.0 0.0 0.00 0.00 0.00 93 1018.6
20260507142104 47 22 5.0 0.0 0.00 0.00 0.00 92 1018.5
20260507141629 47 25 8.0 0.0 0.00 0.00 0.00 92 1018.5
20260507141110 48 56 7.0 0.0 0.00 0.00 0.00 90 1018.4
20260507140636 48 53 7.0 0.0 0.00 0.00 0.00 91 1018.5
20260507140116 47 20 2.0 0.0 0.00 0.00 0.00 93 1018.6
20260507135643 47 34 6.0 0.0 0.00 0.00 0.00 93 1018.6
20260507135122 47 17 11.0 0.0 0.00 0.00 0.00 91 1018.4
20260507134603 49 9 9.0 0.0 0.00 0.00 0.00 88 1018.5
20260507134129 48 38 7.0 0.0 0.00 0.00 0.00 91 1018.5
20260507133609 48 10 5.0 0.0 0.00 0.00 0.00 91 1018.6
20260507133136 48 358 6.0 0.0 0.00 0.00 0.00 92 1018.5
20260507132616 47 19 6.0 0.0 0.00 0.00 0.00 96 1018.5
20260507132143 47 10 6.0 0.0 0.00 0.00 0.00 96 1018.6
20260507131623 47 8 10.0 0.0 0.00 0.00 0.00 94 1018.5
20260507131102 47 36 4.0 0.0 0.00 0.00 0.00 96 1018.3
20260507130630 46 20 6.0 0.0 0.00 0.00 0.00 98 1018.4
20260507130110 47 24 13.0 0.0 0.00 0.00 0.00 96 1018.3
20260507125635 47 19 9.0 0.0 0.00 0.00 0.00 97 1018.3
20260507125116 46 11 11.0 0.0 0.00 0.00 0.00 98 1018.3
20260507124642 46 42 6.0 0.0 0.00 0.00 0.00 98 1018.2
20260507124122 47 13 6.0 0.0 0.00 0.00 0.00 98 1018.1
20260507123603 46 41 9.0 0.0 0.00 0.00 0.00 99 1018.1
20260507123129 46 346 6.0 0.0 0.00 0.00 0.00 97 1018.0
20260507122611 47 34 10.0 0.0 0.00 0.00 0.00 94 1018.0
20260507122135 48 13 10.0 0.0 0.00 0.00 0.00 93 1017.9
20260507121615 48 51 7.0 0.0 0.00 0.00 0.00 94 1017.7
20260507121141 48 34 6.0 0.0 0.00 0.00 0.00 96 1017.6
20260507120621 47 12 6.0 0.0 0.00 0.00 0.00 96 1017.6
20260507115628 48 7 5.0 0.0 0.00 0.00 0.00 95 1017.5
20260507115109 47 41 10.0 0.0 0.00 0.00 0.00 95 1017.6
20260507114634 48 19 13.0 0.0 0.00 0.00 0.00 93 1017.5
20260507114116 48 5 8.0 0.0 0.00 0.00 0.00 93 1017.5
20260507113641 48 40 8.0 0.0 0.00 0.00 0.00 92 1017.5
20260507113121 48 25 16.0 0.0 0.00 0.00 0.00 91 1017.4
20260507112602 48 44 6.0 0.0 0.00 0.00 0.00 94 1017.3
20260507112127 48 18 15.0 0.0 0.00 0.00 0.00 91 1017.3
20260507111607 49 28 7.0 0.0 0.00 0.00 0.00 90 1017.4
20260507111134 49 18 9.0 0.0 0.00 0.00 0.00 89 1017.3
20260507110614 49 346 8.0 0.0 0.00 0.00 0.00 88 1017.3
20260507110141 49 34 7.0 0.0 0.00 0.00 0.00 89 1017.4
20260507105621 50 23 13.0 0.0 0.00 0.00 0.00 87 1017.3
20260507105101 49 40 10.0 0.0 0.00 0.00 0.00 89 1017.3
20260507104627 49 16 13.0 0.0 0.00 0.00 0.00 88 1017.4
20260507104107 49 53 5.0 0.0 0.00 0.00 0.00 90 1017.3
20260507103633 48 3 6.0 0.0 0.00 0.00 0.00 91 1017.3
20260507103113 48 9 9.0 0.0 0.00 0.00 0.00 90 1017.1
20260507102640 48 16 5.0 0.0 0.00 0.00 0.00 90 1017.0
20260507102120 48 23 13.0 0.0 0.00 0.00 0.00 91 1016.8
20260507101646 48 15 7.0 0.0 0.00 0.00 0.00 92 1016.9
20260507101127 48 33 7.0 0.0 0.00 0.00 0.00 94 1016.8
20260507100607 48 24 10.0 0.0 0.00 0.00 0.00 95 1016.8
20260507100133 48 358 6.0 0.0 0.00 0.00 0.00 96 1016.6
20260507095614 47 9 8.0 0.0 0.00 0.00 0.00 100 1016.6
20260507095140 46 25 11.0 0.0 0.00 0.00 0.00 100 1016.5
20260507094620 46 326 6.0 0.0 0.00 0.00 0.00 100 1016.4
20260507094100 46 10 11.0 0.0 0.00 0.00 0.00 100 1016.4
20260507093627 46 16 12.0 0.0 0.00 0.00 0.00 100 1016.4
20260507093107 46 2 9.0 0.0 0.00 0.00 0.00 100 1016.3
20260507092632 46 308 9.0 0.0 0.00 0.00 0.00 100 1016.3
20260507092113 46 29 8.0 0.0 0.00 0.00 0.00 100 1016.3
20260507091638 46 22 9.0 0.0 0.00 0.00 0.00 100 1016.2
20260507091119 47 33 6.0 0.0 0.00 0.00 0.00 100 1016.3
20260507090645 46 342 10.0 0.0 0.00 0.00 0.00 100 1016.1
20260507090125 47 19 10.0 0.0 0.00 0.00 0.00 100 1016.1
20260507085606 47 23 9.0 0.0 0.00 0.00 0.00 100 1015.9
20260507085132 47 13 7.0 0.0 0.00 0.00 0.00 100 1015.9
20260507084612 46 284 9.0 0.0 0.00 0.00 0.00 100 1015.9
20260507084138 46 12 11.0 0.0 0.00 0.00 0.00 100 1015.8
20260507083618 46 7 7.0 0.0 0.00 0.00 0.00 100 1015.8
20260507083144 46 10 7.0 0.0 0.00 0.00 0.00 100 1015.8
20260507082625 46 12 7.0 0.0 0.00 0.00 0.00 100 1015.8
20260507082105 46 326 6.0 0.0 0.00 0.00 0.00 100 1015.8
20260507081630 46 354 9.0 0.0 0.00 0.00 0.00 100 1015.8
20260507081111 46 24 7.0 0.0 0.00 0.00 0.00 100 1015.6
20260507080639 45 2 8.0 0.0 0.00 0.00 0.00 100 1015.6
20260507080118 45 23 10.0 0.0 0.00 0.00 0.00 100 1015.5
20260507075644 45 12 5.0 0.0 0.00 0.00 0.00 100 1015.4
20260507075125 44 17 4.0 0.0 0.00 0.00 0.00 100 1015.4
20260507074604 44 3 11.0 0.0 0.00 0.00 0.00 100 1015.5
20260507074132 45 18 11.0 0.0 0.00 0.00 0.00 100 1015.5
20260507073611 45 16 4.0 0.0 0.00 0.00 0.00 100 1015.4
20260507073137 44 312 4.0 0.0 0.00 0.00 0.00 100 1015.3
20260507072618 44 356 5.0 0.0 0.00 0.00 0.00 100 1015.3
20260507072143 44 19 11.0 0.0 0.00 0.00 0.00 100 1015.4
20260507071624 44 307 5.0 0.0 0.00 0.00 0.00 100 1015.3
20260507071105 43 16 6.0 0.0 0.00 0.00 0.00 100 1015.3
20260507070631 43 21 7.0 0.0 0.00 0.00 0.00 100 1015.2
20260507070110 43 24 9.0 0.0 0.00 0.00 0.00 100 1015.3
20260507065637 43 350 7.0 0.0 0.00 0.00 0.00 100 1015.2
20260507065117 42 348 9.0 0.0 0.00 0.00 0.00 100 1015.1
20260507064643 42 5 8.0 0.0 0.00 0.00 0.00 100 1015.1
20260507064123 42 34 11.0 0.0 0.00 0.00 0.00 100 1015.1
20260507063604 42 19 9.0 0.0 0.00 0.00 0.00 100 1015.1
20260507063130 42 24 13.0 0.0 0.00 0.00 0.00 100 1015.0
20260507062610 42 8 6.0 0.0 0.00 0.00 0.00 100 1014.9
20260507062136 42 34 9.0 0.0 0.00 0.00 0.00 100 1014.9
20260507061616 41 31 10.0 0.0 0.00 0.00 0.00 100 1014.9
20260507061142 41 30 7.0 0.0 0.00 0.00 0.00 100 1014.9
20260507060623 41 22 7.0 0.0 0.00 0.00 0.00 100 1014.9
20260507060103 41 33 9.0 0.0 0.00 0.00 0.00 100 1014.9
20260507055629 41 3 7.0 0.0 0.00 0.00 0.00 100 1014.9
20260507055110 41 10 8.0 0.0 0.00 0.00 0.00 100 1014.7
20260507054635 41 20 10.0 0.0 0.00 0.00 0.00 100 1014.7
20260507054115 41 5 7.0 0.0 0.00 0.00 0.00 100 1014.6
20260507053641 41 25 9.0 0.0 0.00 0.00 0.00 100 1014.5
20260507053122 41 26 10.0 0.0 0.00 0.00 0.00 100 1014.5
20260507052603 41 20 8.0 0.0 0.00 0.00 0.00 100 1014.4
20260507052128 41 21 8.0 0.0 0.00 0.00 0.00 100 1014.3
20260507051609 41 324 4.0 0.0 0.00 0.00 0.00 100 1014.2
20260507051135 41 29 7.0 0.0 0.00 0.00 0.00 100 1014.2
20260507050615 41 3 9.0 0.0 0.00 0.00 0.00 100 1014.1
20260507050141 41 28 9.0 0.0 0.00 0.00 0.00 100 1014.0
20260507045627 41 30 5.0 0.0 0.00 0.00 0.00 100 1014.0
20260507045101 41 12 10.0 0.0 0.00 0.00 0.00 100 1013.8
20260507044628 41 26 8.0 0.0 0.00 0.00 0.00 100 1013.9
20260507044108 41 28 14.0 0.0 0.00 0.00 0.00 100 1013.8